Klawock, AK

12:21 PM AKDT on April 19, 2018 (GMT -0800)
Klawock

Weather History for PAKW - October, 2012

Change the Weather History Date:

Wednesday, October 24, 2012

  Actual Average Record
Temperature  
Mean Temperature 38 °F -  
Max Temperature 46 °F 47 °F 59 °F (2010)
Min Temperature 30 °F 37 °F 30 °F (2012)
Degree Days  
Heating Degree Days 28    
Moisture  
Dew Point 23 °F    
Average Humidity 60    
Maximum Humidity 85    
Minimum Humidity 34    
Precipitation  
Precipitation 0.00 in - - ()
Sea Level Pressure  
Sea Level Pressure 30.14 in    
Wind  
Wind Speed 4 mph (NNE)    
Max Wind Speed 9 mph    
Max Gust Speed -    
Visibility 10 miles    
Events      
Averages and records for this station are not official NWS values.
T = Trace of Precipitation, MM = Missing Value Source: NWS Daily Summary

Daily Weather History Graph

Daily Weather History Graph

Search for Another Location

Airport or City:

Trip Planner

Search our weather history database for the weather conditions in past years. The results will help you decide how hot, cold, wet, or windy it might be!

Date:

Astronomy

Oct. 24, 2012 Rise Set
Actual Time 7:42 AM AKDT 5:29 PM AKDT
Civil Twilight 7:04 AM AKDT 6:07 PM AKDT
Nautical Twilight 6:21 AM AKDT 6:50 PM AKDT
Astronomical Twilight 5:38 AM AKDT 7:32 PM AKDT
Moon 3:29 PM AKDT (10/24) 1:57 AM AKDT (10/24)
Length of Visible Light 11h 02m
Length of Day
9h 46m
Waxing Gibbous, 77% of the Moon is Illuminated
Oct 24
Waxing Gibbous
Oct 29
Full
Nov 6
Last Quarter
Nov 13
New
Nov 20
First Quarter

Hourly Weather History & Observations

Time (AKDT) Temp. Windchill Dew Point Humidity Pressure Visibility Wind Dir Wind Speed Gust Speed Precip Events Conditions
12:53 AM 32.0 °F 26.4 °F 25.0 °F 75% 30.04 in 10.0 mi North 5.8 mph - N/A   Clear
1:53 AM 30.9 °F - 24.1 °F 76% 30.05 in 10.0 mi Calm Calm - N/A   Clear
2:53 AM 32.0 °F - 24.1 °F 73% 30.05 in 10.0 mi Calm Calm - N/A   Clear
3:53 AM 33.1 °F - 24.1 °F 70% 30.05 in 10.0 mi Calm Calm - N/A   Clear
4:53 AM 33.1 °F 27.7 °F 23.0 °F 66% 30.06 in 10.0 mi NNE 5.8 mph - N/A   Clear
5:53 AM 30.9 °F 25.2 °F 24.1 °F 76% 30.06 in 10.0 mi North 5.8 mph - N/A   Clear
6:53 AM 33.1 °F 27.7 °F 24.1 °F 70% 30.07 in 10.0 mi North 5.8 mph - N/A   Clear
7:53 AM 33.1 °F - 24.1 °F 70% 30.09 in 10.0 mi Calm Calm - N/A   Clear
8:53 AM 35.1 °F 31.0 °F 24.1 °F 64% 30.09 in 10.0 mi Variable 4.6 mph - N/A   Clear
9:53 AM 37.9 °F 31.5 °F 25.0 °F 60% 30.10 in 10.0 mi NNE 9.2 mph - N/A   Clear
10:53 AM 41.0 °F 35.8 °F 25.0 °F 53% 30.12 in 10.0 mi NNE 8.1 mph - N/A   Clear
11:53 AM 43.0 °F 38.2 °F 23.0 °F 45% 30.12 in 10.0 mi NNE 8.1 mph - N/A   Clear
12:53 PM 45.0 °F 40.6 °F 21.0 °F 39% 30.13 in 10.0 mi NE 8.1 mph - N/A   Clear
1:53 PM 45.0 °F 40.1 °F 19.0 °F 36% 30.14 in 10.0 mi NNE 9.2 mph - N/A   Clear
2:53 PM 44.1 °F 41.5 °F 17.1 °F 34% 30.15 in 10.0 mi ENE 4.6 mph - N/A   Clear
3:53 PM 42.1 °F 40.2 °F 17.1 °F 37% 30.17 in 10.0 mi NE 3.5 mph - N/A   Clear
4:53 PM 43.0 °F - 18.0 °F 37% 30.18 in 10.0 mi Calm Calm - N/A   Overcast
5:53 PM 39.9 °F - 18.0 °F 41% 30.20 in 10.0 mi Calm Calm - N/A   Overcast
6:53 PM 37.9 °F - 19.9 °F 48% 30.21 in 10.0 mi Calm Calm - N/A   Overcast
7:53 PM 34.0 °F - 23.0 °F 64% 30.23 in 10.0 mi Calm Calm - N/A   Overcast
8:53 PM 34.0 °F - 21.0 °F 59% 30.25 in 10.0 mi Calm Calm - N/A   Clear
9:53 PM 32.0 °F 27.5 °F 24.1 °F 73% 30.26 in 10.0 mi NNE 4.6 mph - N/A   Partly Cloudy
10:53 PM 30.9 °F 26.2 °F 27.0 °F 85% 30.27 in 10.0 mi NNE 4.6 mph - N/A   Overcast
11:53 PM 30.0 °F 26.5 °F 26.1 °F 85% 30.28 in 10.0 mi NE 3.5 mph - N/A   Clear